Youngstown, OH

12:05 AM EDT on June 25, 2017 (GMT -0400)
Youngstown-Warren Regional

Weather History for KYNG - February, 2013

Change the Weather History Date:

Tuesday, February 26, 2013

  Actual Average Record
Temperature  
Mean Temperature 33 °F 31 °F  
Max Temperature 38 °F 39 °F 73 °F (2000)
Min Temperature 27 °F 23 °F -8 °F (1963)
Degree Days  
Heating Degree Days 32 34  
Month to date heating degree days 1021 957  
Since 1 July heating degree days 4381 4580  
Cooling Degree Days 0 0  
Month to date cooling degree days 0 0  
Year to date cooling degree days 0 0  
Moisture  
Dew Point 27 °F    
Average Humidity 73    
Maximum Humidity 92    
Minimum Humidity 54    
Precipitation  
Precipitation 0.77 in 0.08 in 0.77 in (2013)
Month to date precipitation 2.14 1.98  
Year to date precipitation 3.95 4.53  
Snow  
Snow T in 0.50 in - ()
Month to date snowfall 19.3 11.9  
Since 1 July snowfall 59.4 47.9  
Snow Depth 0.00 in    
Sea Level Pressure  
Sea Level Pressure 29.78 in    
Wind  
Wind Speed 16 mph (ESE)    
Max Wind Speed 28 mph    
Max Gust Speed 39 mph    
Visibility 8 miles    
Events Rain , Snow    
T = Trace of Precipitation, MM = Missing Value Source: NWS Daily Summary

Daily Weather History Graph

Daily Weather History Graph

Search for Another Location

Airport or City:

Trip Planner

Search our weather history database for the weather conditions in past years. The results will help you decide how hot, cold, wet, or windy it might be!

Date:

Astronomy

Feb. 26, 2013 Rise Set
Actual Time 7:01 AM EST 6:10 PM EST
Civil Twilight 6:33 AM EST 6:38 PM EST
Nautical Twilight 6:01 AM EST 7:10 PM EST
Astronomical Twilight 5:29 AM EST 7:42 PM EST
Moon 7:26 PM EST (2/26) 7:02 AM EST (2/26)
Length of Visible Light 12h 04m
Length of Day
11h 08m
Full, 99% of the Moon is Illuminated
Feb 26
Full
Mar 4
Last Quarter
Mar 11
New
Mar 19
First Quarter
Mar 27
Full

Hourly Weather History & Observations

Time (EST) Temp. Windchill Dew Point Humidity Pressure Visibility Wind Dir Wind Speed Gust Speed Precip Events Conditions
12:51 AM 28.9 °F 21.1 °F 19.9 °F 69% 30.09 in 10.0 mi East 8.1 mph - N/A   Partly Cloudy
1:51 AM 28.9 °F 20.4 °F 19.9 °F 69% 30.07 in 10.0 mi East 9.2 mph - N/A   Partly Cloudy
2:51 AM 27.0 °F 19.5 °F 19.0 °F 72% 30.07 in 10.0 mi East 6.9 mph - N/A   Scattered Clouds
3:51 AM 28.0 °F 19.3 °F 19.9 °F 72% 30.02 in 10.0 mi East 9.2 mph - N/A   Mostly Cloudy
4:51 AM 28.9 °F 19.2 °F 19.9 °F 69% 30.00 in 10.0 mi East 11.5 mph - N/A   Mostly Cloudy
5:51 AM 30.0 °F 19.5 °F 21.0 °F 69% 29.97 in 10.0 mi East 13.8 mph - N/A   Mostly Cloudy
6:51 AM 30.0 °F 21.1 °F 21.0 °F 69% 29.98 in 10.0 mi East 10.4 mph - N/A   Overcast
7:51 AM 32.0 °F 23.6 °F 21.9 °F 66% 29.97 in 10.0 mi ESE 10.4 mph - N/A   Overcast
8:51 AM 34.0 °F 24.6 °F 21.9 °F 61% 29.95 in 10.0 mi East 13.8 mph - N/A   Overcast
9:51 AM 36.0 °F 26.7 °F 23.0 °F 59% 29.93 in 10.0 mi East 15.0 mph 21.9 mph N/A   Overcast
10:51 AM 37.0 °F 27.4 °F 23.0 °F 57% 29.89 in 10.0 mi ESE 17.3 mph 27.6 mph N/A   Overcast
11:51 AM 37.0 °F 27.7 °F 26.1 °F 65% 29.88 in 10.0 mi ESE 16.1 mph 25.3 mph 0.00 in Rain Light Rain
12:51 PM 37.9 °F 29.2 °F 28.0 °F 68% 29.83 in 10.0 mi ESE 15.0 mph 31.1 mph 0.00 in Rain Light Rain
1:51 PM 36.0 °F 26.0 °F 30.0 °F 79% 29.79 in 3.0 mi ESE 17.3 mph 27.6 mph 0.02 in Rain Light Rain
2:51 PM 35.1 °F 23.8 °F 30.0 °F 82% 29.73 in 3.0 mi East 20.7 mph 32.2 mph 0.06 in Rain Light Rain
3:51 PM 34.0 °F 22.4 °F 30.0 °F 85% 29.72 in 3.0 mi ESE 20.7 mph 32.2 mph 0.10 in Rain Light Rain
4:37 PM 33.8 °F 22.5 °F 30.2 °F 87% 29.68 in 3.0 mi ESE 19.6 mph 34.5 mph 0.20 in Rain Rain
4:51 PM 34.0 °F 23.0 °F 30.9 °F 89% 29.70 in 3.0 mi ESE 18.4 mph 34.5 mph 0.26 in Rain Rain
5:13 PM 33.8 °F 22.8 °F 30.2 °F 87% 29.67 in 2.0 mi SE 18.4 mph 32.2 mph 0.06 in Rain Rain
5:34 PM 33.8 °F 22.8 °F 30.2 °F 87% 29.66 in 8.0 mi ESE 18.4 mph 28.8 mph 0.16 in Rain Light Rain
5:44 PM 33.8 °F 22.2 °F 30.2 °F 87% 29.65 in 4.0 mi ESE 20.7 mph 31.1 mph 0.16 in Rain Light Rain
5:51 PM 34.0 °F 21.8 °F 30.9 °F 89% 29.68 in 4.0 mi ESE 23.0 mph 28.8 mph 0.17 in Rain Light Rain
6:04 PM 35.6 °F 24.8 °F 30.2 °F 81% 29.64 in 4.0 mi ESE 19.6 mph 29.9 mph 0.02 in Rain Light Rain
6:37 PM 35.6 °F 24.2 °F 32.0 °F 87% 29.63 in 6.0 mi East 21.9 mph 26.5 mph 0.07 in Rain Light Rain
6:51 PM 35.1 °F 24.1 °F 32.0 °F 89% 29.66 in 7.0 mi ESE 19.6 mph 27.6 mph 0.07 in Rain Light Rain
7:36 PM 33.8 °F 22.5 °F 32.0 °F 93% 29.59 in 7.0 mi East 19.6 mph 29.9 mph 0.05 in Rain , Snow Light Rain
7:51 PM 35.1 °F 24.1 °F 32.0 °F 89% 29.62 in 9.0 mi ESE 19.6 mph 35.7 mph 0.07 in Rain Light Rain
8:51 PM 36.0 °F 25.3 °F 33.1 °F 89% 29.61 in 10.0 mi ESE 19.6 mph 28.8 mph 0.01 in Rain Light Rain
9:51 PM 36.0 °F 24.2 °F 33.1 °F 89% 29.58 in 10.0 mi ESE 24.2 mph 35.7 mph 0.00 in Rain Light Rain
10:37 PM 35.6 °F 24.8 °F 32.0 °F 87% 29.55 in 8.0 mi ESE 19.6 mph 29.9 mph 0.00 in Rain Light Rain
10:51 PM 36.0 °F 26.7 °F 33.1 °F 89% 29.57 in 10.0 mi ESE 15.0 mph 25.3 mph 0.01 in Rain Light Rain
11:36 PM 35.6 °F 25.9 °F 33.8 °F 93% 29.54 in 10.0 mi ESE 16.1 mph 24.2 mph 0.00 in Rain Light Rain
11:51 PM 37.0 °F 27.0 °F 32.0 °F 82% 29.56 in 10.0 mi ESE 18.4 mph 27.6 mph 0.00 in Rain Light Rain